[[{"header":{"parameterUnit":"m.s-1","parameterCategory":1,"la1":30.2991,"la2":30.254,"lo1":-89.0895,"lo2":-89.0444,"dy":0.0017,"dx":0.0017,"nx":28,"ny":28,"refTime":"2023-09-24T09:00:00:Z","depth":0,"parameterNumber":2,"parameterNumberName":"U-component_of_WINDS"},"data":[0,0,0,0,0,0,0,0,0,0,0,0,0,0,0,0,0,0,0,0,0,0,0,0,0,0,0,0,0,0,0,0,0,0,0,0,0,0,0,0,0,0,0,0,0,0,0,0,0,0,0,0,0,0,0,0,0,0,-2.6053,-2.6054,0,-2.6108,-2.6109,-2.6109,-2.6018,-2.6015,-2.6012,-2.6009,-2.6066,-2.6071,-2.6075,0,0,0,0,0,0,0,0,0,0,0,0,0,-2.5871,-2.5875,-2.6053,-2.6054,-2.6055,-2.6108,-2.6109,-2.6109,-2.6019,-2.6015,-2.6011,-2.6008,-2.6065,-2.607,-2.6076,0,0,0,0,0,0,0,0,0,0,0,0,0,-2.594,-2.5876,-2.6053,-2.6016,-2.6013,-2.6108,-2.6109,-2.6109,-2.602,-2.6015,-2.6011,-2.6006,-2.6063,-2.607,-2.6076,-2.621,0,0,-2.6096,-2.6099,0,0,0,0,0,0,0,0,-2.5937,-2.5947,-2.6021,-2.6019,-2.6016,-2.6052,-2.6065,-2.6143,-2.6021,-2.6017,-2.6009,-2.6004,-2.6065,-2.6072,-2.6092,-2.6213,-2.6215,-2.6097,-2.6101,-2.6104,-2.6106,0,0,0,0,0,0,0,-2.5932,-2.5944,-2.6075,-2.6022,-2.6019,-2.5997,-2.6001,-2.6079,-2.6067,-2.6017,-2.6011,-2.6018,-2.6063,-2.6086,-2.6093,-2.6216,-2.6097,-2.6103,-2.6107,-2.6109,-2.6448,-2.6453,0,0,0,0,0,0,-2.5932,-2.5941,-2.6073,-2.6076,-2.5964,-2.6004,-2.6009,-2.6045,-2.6066,-2.6064,-2.6022,-2.6014,-2.6077,-2.6085,-2.6094,-2.6252,-2.6104,-2.611,-2.6114,-2.6443,-2.6449,-2.6455,0,0,0,0,0,0,-2.5928,-2.5944,-2.6071,-2.6007,-2.6021,-2.6012,-2.6053,-2.6048,-2.6071,-2.6069,-2.6067,-2.6048,-2.6074,-2.6085,-2.6182,-2.6253,-2.6113,-2.6119,-2.6437,-2.6445,-2.6452,-2.6569,0,0,0,0,0,0,-2.5923,-2.5943,-2.5994,-2.6009,-2.6025,-2.6158,-2.6057,-2.6053,-2.6082,-2.6072,-2.6093,-2.6092,-2.6071,-2.6172,-2.6188,-2.6259,-2.6124,-2.6431,-2.6441,-2.645,-2.6559,-2.6579,-2.6597,0,0,0,0,0,-2.5917,-2.6025,-2.5997,-2.6014,-2.6088,-2.6162,-2.6171,-2.6145,-2.6089,-2.6139,-2.6138,-2.6091,-2.6242,-2.6183,-2.62,-2.6274,-2.6426,-2.6438,-2.6449,-2.655,-2.6575,-2.6597,0,0,0,0,0,0,-2.602,-2.6027,-2.5996,-2.6112,-2.6137,-2.6146,-2.621,-2.6172,-2.6214,-2.6203,-2.6168,-2.6174,-2.6278,-2.6285,-2.6219,-2.6404,-2.6325,-2.634,-2.6396,-2.642,-2.6439,-2.6435,-2.613,0,0,0,0,0,-2.6056,-2.6115,-2.6118,-2.622,-2.6234,-2.622,-2.6251,-2.6228,-2.6253,-2.6263,-2.6269,-2.6296,-2.6348,-2.6384,-2.6433,-2.6559,-2.6562,-2.6618,-2.6638,-2.6653,-2.6667,-2.6734,-2.6759,-2.6492,-2.6492,-2.6492,0,0,-2.6132,-2.6142,-2.6182,-2.6241,-2.6258,-2.632,-2.623,-2.6299,-2.6345,-2.6274,-2.6366,-2.6371,-2.6398,-2.6509,-2.6559,-2.6519,-2.6742,-2.6668,-2.6681,-2.6686,-2.6748,-2.6773,-2.6796,-2.65,-2.6498,-2.6497,0,0,-2.6301,-2.6315,-2.6402,-2.642,-2.6446,-2.6436,-2.6457,-2.6472,-2.6473,-2.6564,-2.6512,-2.6566,-2.6658,-2.6679,-2.6702,-2.6879,-2.6837,-2.6895,-2.6997,-2.7062,-2.7083,-2.7102,-2.7164,-2.7187,-2.6909,-2.6909,-2.691,0,-2.6392,-2.6483,-2.6451,-2.6524,-2.6551,-2.6489,-2.6577,-2.6596,-2.6638,-2.6658,-2.6613,-2.6727,-2.6741,-2.6856,-2.6899,-2.692,-2.6942,-2.6893,-2.7083,-2.7101,-2.7118,-2.7177,-2.7201,-2.6916,-2.6916,-2.6915,-2.6914,0,-2.6593,-2.6657,-2.6724,-2.6764,-2.6799,-2.6879,-2.686,-2.6899,-2.6873,-2.6867,-2.6961,-2.6975,-2.7025,-2.7051,-2.7026,-2.7163,-2.7137,-2.7088,-2.7007,-2.715,-2.7206,-2.7228,-2.6926,-2.6924,-2.6922,-2.692,0,0,-2.683,-2.6851,-2.6876,-2.6894,-2.6918,-2.6967,-2.7044,-2.7092,-2.7127,-2.7157,-2.7221,-2.73,-2.7254,-2.728,-2.7257,-2.7314,-2.7453,-2.7258,-2.7258,-2.7294,-2.7604,-2.7642,-2.7669,-2.7425,-2.7429,-2.7433,-2.7602,0,-2.6998,-2.7131,-2.7104,-2.7234,-2.7292,-2.7234,-2.73,-2.7323,-2.7319,-2.7369,-2.7365,-2.7422,-2.7357,-2.7372,-2.7426,-2.7425,-2.7515,-2.7412,-2.7484,-2.7487,-2.748,-2.7697,-2.7737,-2.7897,-2.7623,-2.7627,-2.763,0,-2.7213,-2.725,-2.7386,-2.74,-2.7423,-2.7484,-2.7526,-2.7574,-2.7598,-2.7591,-2.762,-2.7586,-2.7662,-2.758,-2.7685,-2.7616,-2.7643,-2.7647,-2.7652,-2.7659,-2.7568,-2.771,-2.7947,-2.7971,-2.7664,-2.7661,-2.7658,0,-2.7372,-2.7457,-2.7548,-2.7565,-2.7584,-2.7628,-2.7638,-2.7657,-2.7687,-2.7724,-2.7744,-2.779,-2.7815,-2.7851,-2.783,-2.7772,-2.7938,-2.7854,-2.7935,-2.7936,-2.7973,-2.7971,-2.8218,-2.7991,-2.799,-2.799,-2.7989,0,-2.7563,-2.7649,-2.762,-2.7677,-2.777,-2.7739,-2.7832,-2.7835,-2.7852,-2.7908,-2.786,-2.7914,-2.7883,-2.7934,-2.7918,-2.8007,-2.8019,-2.8016,-2.8011,-2.802,-2.8021,-2.8038,-2.8027,-2.7996,-2.7995,-2.7994,-2.7993,0,-2.7757,-2.7742,-2.7838,-2.7847,-2.7852,-2.792,-2.7928,-2.7981,-2.7974,-2.8045,-2.806,-2.8049,-2.8107,-2.8089,-2.8152,-2.8141,-2.8254,-2.8234,-2.8246,-2.8241,-2.8323,-2.8315,-2.859,-2.8624,-2.8375,-2.8377,-2.8379,0,-2.7881,-2.7945,-2.7961,-2.7995,-2.8008,-2.8063,-2.8094,-2.8065,-2.8099,-2.8131,-2.818,-2.8233,-2.8274,-2.8369,-2.8367,-2.8414,-2.8395,-2.8488,-2.8402,-2.841,-2.8397,-2.8393,-2.8399,-2.8506,-2.8509,-2.8511,-2.8513,0,-2.8101,-2.809,-2.8136,-2.818,-2.8219,-2.8252,-2.8281,-2.8311,-2.8284,-2.8325,-2.8383,-2.8415,-2.8478,-2.8532,-2.8574,-2.8584,-2.8545,-2.854,-2.8561,-2.8572,-2.8576,-2.8575,-2.8293,-2.8534,-2.8532,-2.853,-2.8529,-2.8528,-2.8264,-2.8318,-2.8337,-2.839,-2.8409,-2.8437,-2.8486,-2.8485,-2.8533,-2.8582,-2.8562,-2.8629,-2.865,-2.8703,-2.8718,-2.877,-2.8735,-2.8765,-2.8773,-2.8781,-2.8792,-2.8567,-2.8778,-2.8777,-2.8777,-2.8776,-2.8776,0,-2.8482,-2.8491,-2.854,-2.8582,-2.8624,-2.8582,-2.8611,-2.8649,-2.8708,-2.8731,-2.8772,-2.8839,-2.889,-2.8891,-2.8939,-2.8981,-2.8964,-2.8994,-2.8991,-2.8994,-2.8821,-2.8798,-2.9007,-2.9007,-2.9007,-2.9007,-2.9007,-2.9007,-2.86,-2.8689,-2.8681,-2.8778,-2.8787,-2.8852,-2.8872,-2.8897,-2.8915,-2.8991,-2.9034,-2.9034,-2.9048,-2.9096,-2.9142,-2.9141,-2.916,-2.9198,-2.9191,-2.9029,-2.9006,-2.8984,-2.8962,-2.9203,-2.9203,-2.9359,-2.9361,-2.9362]},{"header":{"parameterUnit":"m.s-1","parameterCategory":1,"la1":30.2991,"la2":30.254,"lo1":-89.0895,"lo2":-89.0444,"dy":0.0017,"dx":0.0017,"nx":28,"ny":28,"refTime":"2023-09-24T09:00:00:Z","depth":0,"parameterNumber":3,"parameterNumberName":"V-component_of_WINDS"},"data":[0,0,0,0,0,0,0,0,0,0,0,0,0,0,0,0,0,0,0,0,0,0,0,0,0,0,0,0,0,0,0,0,0,0,0,0,0,0,0,0,0,0,0,0,0,0,0,0,0,0,0,0,0,0,0,0,0,0,-2.4485,-2.4484,0,-2.4409,-2.4408,-2.4408,-2.4381,-2.4381,-2.4382,-2.4382,-2.4296,-2.4294,-2.4291,0,0,0,0,0,0,0,0,0,0,0,0,0,-2.4597,-2.4595,-2.4485,-2.4484,-2.4483,-2.4409,-2.4408,-2.4407,-2.4381,-2.4381,-2.4382,-2.4382,-2.4297,-2.4294,-2.4291,0,0,0,0,0,0,0,0,0,0,0,0,0,-2.4537,-2.4594,-2.4485,-2.4462,-2.4459,-2.441,-2.4408,-2.4407,-2.4381,-2.4381,-2.4382,-2.4382,-2.4298,-2.4294,-2.429,-2.4257,0,0,-2.4278,-2.4277,0,0,0,0,0,0,0,0,-2.4541,-2.4533,-2.4466,-2.4463,-2.446,-2.4405,-2.4416,-2.4356,-2.4381,-2.441,-2.4382,-2.4383,-2.4331,-2.4325,-2.4309,-2.4253,-2.4249,-2.4278,-2.4276,-2.4274,-2.4273,0,0,0,0,0,0,0,-2.4545,-2.4536,-2.4455,-2.4465,-2.4461,-2.4451,-2.4443,-2.4405,-2.4369,-2.4408,-2.4406,-2.4397,-2.433,-2.4313,-2.4307,-2.4248,-2.4278,-2.4275,-2.4272,-2.4271,-2.4154,-2.4153,0,0,0,0,0,0,-2.4554,-2.454,-2.4457,-2.4453,-2.4502,-2.4449,-2.444,-2.4422,-2.4369,-2.4362,-2.4397,-2.4397,-2.432,-2.4312,-2.4304,-2.4258,-2.4274,-2.4271,-2.4268,-2.4155,-2.4154,-2.4153,0,0,0,0,0,0,-2.4557,-2.4547,-2.446,-2.4496,-2.4484,-2.4446,-2.4427,-2.442,-2.4404,-2.4361,-2.4354,-2.4387,-2.432,-2.4309,-2.4268,-2.4255,-2.4269,-2.4265,-2.4156,-2.4155,-2.4154,-2.4168,0,0,0,0,0,0,-2.456,-2.4548,-2.4538,-2.4496,-2.4482,-2.4429,-2.4426,-2.4419,-2.4398,-2.4397,-2.435,-2.4343,-2.4319,-2.4274,-2.4264,-2.425,-2.4262,-2.4157,-2.4155,-2.4154,-2.4168,-2.4167,-2.4166,0,0,0,0,0,-2.4564,-2.4545,-2.4538,-2.4528,-2.4469,-2.4429,-2.4421,-2.4396,-2.4398,-2.4385,-2.4356,-2.4344,-2.4258,-2.427,-2.4259,-2.4243,-2.4157,-2.4156,-2.4154,-2.4169,-2.4167,-2.4166,0,0,0,0,0,0,-2.4585,-2.4539,-2.4531,-2.4498,-2.4467,-2.4425,-2.4408,-2.4396,-2.4363,-2.4363,-2.4331,-2.4321,-2.4281,-2.4258,-2.4272,-2.4205,-2.4206,-2.4202,-2.4222,-2.422,-2.4219,-2.4225,-2.4259,0,0,0,0,0,-2.4586,-2.456,-2.452,-2.4494,-2.448,-2.4447,-2.4428,-2.4412,-2.4378,-2.4365,-2.4334,-2.4299,-2.4263,-2.424,-2.4206,-2.4165,-2.4151,-2.4148,-2.4147,-2.4146,-2.4142,-2.4113,-2.411,-2.4147,-2.4147,-2.4147,0,0,-2.4587,-2.4558,-2.4544,-2.4497,-2.4472,-2.4442,-2.4436,-2.4406,-2.4382,-2.4359,-2.4318,-2.4294,-2.4252,-2.421,-2.419,-2.4189,-2.4129,-2.4144,-2.4144,-2.414,-2.4111,-2.4108,-2.4104,-2.4146,-2.4146,-2.4147,0,0,-2.4573,-2.4551,-2.4526,-2.45,-2.4462,-2.444,-2.4433,-2.4392,-2.4375,-2.4334,-2.4314,-2.4283,-2.4225,-2.4194,-2.4171,-2.4142,-2.4127,-2.4131,-2.4125,-2.4098,-2.4094,-2.4092,-2.4077,-2.4072,-2.4128,-2.4128,-2.4128,0,-2.4579,-2.4537,-2.4513,-2.4483,-2.4461,-2.444,-2.4411,-2.4387,-2.4338,-2.4322,-2.4323,-2.4245,-2.4216,-2.4164,-2.4156,-2.4139,-2.4127,-2.4136,-2.4098,-2.4094,-2.4091,-2.4077,-2.4072,-2.4128,-2.4128,-2.4128,-2.4128,0,-2.4543,-2.4514,-2.4497,-2.4452,-2.4428,-2.4399,-2.4367,-2.4344,-2.4329,-2.4305,-2.4259,-2.4223,-2.4179,-2.4165,-2.415,-2.4109,-2.4109,-2.4105,-2.4105,-2.4088,-2.4074,-2.4069,-2.4129,-2.4129,-2.4129,-2.4128,0,0,-2.4543,-2.4484,-2.4478,-2.4455,-2.441,-2.4385,-2.4351,-2.431,-2.4289,-2.4255,-2.4224,-2.4172,-2.4166,-2.4139,-2.4119,-2.4096,-2.4068,-2.4092,-2.409,-2.4086,-2.4015,-2.4018,-2.4012,-2.4059,-2.4058,-2.4057,-2.4018,0,-2.4522,-2.4466,-2.4442,-2.4395,-2.4364,-2.4342,-2.4312,-2.4278,-2.4254,-2.4221,-2.4192,-2.4155,-2.4151,-2.4134,-2.411,-2.4077,-2.4053,-2.408,-2.4024,-2.4023,-2.4034,-2.4006,-2.4009,-2.3974,-2.4012,-2.4011,-2.4011,0,-2.4491,-2.4458,-2.4409,-2.4363,-2.4349,-2.4324,-2.4281,-2.4251,-2.421,-2.4193,-2.4162,-2.4142,-2.4101,-2.4105,-2.4045,-2.4064,-2.4039,-2.4019,-2.4017,-2.4009,-2.4015,-2.3994,-2.3963,-2.3956,-2.4002,-2.4003,-2.4004,0,-2.4492,-2.4435,-2.4397,-2.4379,-2.4325,-2.4307,-2.4283,-2.4243,-2.4218,-2.4179,-2.4161,-2.4117,-2.4092,-2.4056,-2.4023,-2.403,-2.3964,-2.3967,-2.3944,-2.3945,-2.3931,-2.3932,-2.3892,-2.3919,-2.3919,-2.392,-2.392,0,-2.447,-2.444,-2.4396,-2.4373,-2.4336,-2.4306,-2.4269,-2.4243,-2.4206,-2.4173,-2.415,-2.4119,-2.4078,-2.404,-2.4013,-2.3964,-2.3954,-2.3936,-2.3928,-2.3937,-2.3938,-2.3918,-2.3919,-2.3918,-2.3918,-2.3919,-2.3919,0,-2.4466,-2.4436,-2.4392,-2.4344,-2.4331,-2.4306,-2.4263,-2.4236,-2.4209,-2.4167,-2.4155,-2.4112,-2.4065,-2.4028,-2.3968,-2.3949,-2.3896,-2.389,-2.3911,-2.3907,-2.3885,-2.3886,-2.383,-2.3818,-2.3856,-2.3856,-2.3855,0,-2.4453,-2.443,-2.4379,-2.4356,-2.4333,-2.4297,-2.4271,-2.4238,-2.4211,-2.416,-2.4138,-2.409,-2.405,-2.3975,-2.3935,-2.3886,-2.3876,-2.386,-2.3869,-2.3876,-2.3871,-2.3872,-2.3867,-2.3858,-2.3858,-2.3858,-2.3858,0,-2.4433,-2.4418,-2.4384,-2.4342,-2.4312,-2.4277,-2.4241,-2.4222,-2.4182,-2.4151,-2.4104,-2.4073,-2.401,-2.396,-2.3907,-2.3877,-2.3858,-2.3855,-2.3847,-2.3854,-2.3865,-2.3854,-2.3905,-2.3857,-2.3857,-2.3857,-2.3857,-2.3857,-2.4422,-2.4398,-2.4358,-2.4318,-2.4287,-2.4253,-2.4224,-2.4193,-2.4154,-2.4102,-2.4084,-2.4034,-2.3986,-2.3913,-2.3882,-2.3839,-2.3837,-2.3827,-2.3823,-2.382,-2.3819,-2.3874,-2.3829,-2.3829,-2.3829,-2.3829,-2.3829,0,-2.4398,-2.437,-2.4334,-2.4284,-2.4251,-2.4239,-2.4197,-2.4169,-2.4126,-2.4086,-2.4046,-2.3988,-2.3939,-2.3894,-2.384,-2.3814,-2.3803,-2.3801,-2.3801,-2.3793,-2.3825,-2.3836,-2.381,-2.381,-2.381,-2.381,-2.381,-2.381,-2.4382,-2.434,-2.4319,-2.4258,-2.4229,-2.4182,-2.4158,-2.4124,-2.4091,-2.4028,-2.3988,-2.3959,-2.3914,-2.3857,-2.3808,-2.3796,-2.3775,-2.3774,-2.3759,-2.3789,-2.3792,-2.3794,-2.3804,-2.3771,-2.3771,-2.3729,-2.3729,-2.3729]}]]